| time (UTC) | temp C | wind direction | speed KPH | gust KPH | rain 1hr cm | rain 24hr cm | rain mn cm | humidity % | barometer mb |
| 20260906065055 | 18 | 0 | 1.6 | 4.8 | 0.00 | 0.00 | 0.00 | 70 | 1023.1 |
| 20260906064031 | 17 | 0 | 3.2 | 4.8 | 0.00 | 0.00 | 0.00 | 71 | 1023.0 |
| 20260906063021 | 17 | 0 | 1.6 | 3.2 | 0.00 | 0.00 | 0.00 | 72 | 1023.0 |
| 20260906062111 | 17 | 0 | 1.6 | 3.2 | 0.00 | 0.00 | 0.00 | 74 | 1023.0 |
| 20260906061107 | 16 | 0 | 1.6 | 3.2 | 0.00 | 0.00 | 0.00 | 74 | 1023.0 |
| 20260906060057 | 16 | 0 | 1.6 | 3.2 | 0.00 | 0.00 | 0.00 | 76 | 1022.9 |
| 20260906055047 | 16 | 0.0 | 0.0 | 0.00 | 0.00 | 0.00 | 79 | 1022.8 | |
| 20260906054103 | 15 | 0.0 | 0.0 | 0.00 | 0.00 | 0.00 | 80 | 1022.8 | |
| 20260906053033 | 14 | 0.0 | 0.0 | 0.00 | 0.00 | 0.00 | 78 | 1022.7 | |
| 20260906052024 | 14 | 0.0 | 0.0 | 0.00 | 0.00 | 0.00 | 78 | 1022.7 | |
| 20260906051020 | 15 | 0.0 | 0.0 | 0.00 | 0.00 | 0.00 | 77 | 1022.8 | |
| 20260906050110 | 15 | 0 | 0.0 | 3.2 | 0.00 | 0.00 | 0.00 | 77 | 1022.8 |
| 20260906045106 | 15 | 0.0 | 0.0 | 0.00 | 0.00 | 0.00 | 77 | 1022.7 | |
| 20260906044056 | 15 | 0.0 | 0.0 | 0.00 | 0.00 | 0.00 | 77 | 1022.5 | |
| 20260906043046 | 15 | 0.0 | 1.6 | 0.00 | 0.00 | 0.00 | 76 | 1022.4 | |
| 20260906042042 | 15 | 0 | 0.0 | 3.2 | 0.00 | 0.00 | 0.00 | 77 | 1022.5 |
| 20260906041052 | 15 | 0 | 1.6 | 3.2 | 0.00 | 0.00 | 0.00 | 77 | 1022.3 |
| 20260906040022 | 15 | 0 | 0.0 | 3.2 | 0.00 | 0.00 | 0.00 | 77 | 1022.3 |
| 20260906035018 | 15 | 0 | 0.0 | 3.2 | 0.00 | 0.00 | 0.00 | 77 | 1022.1 |
| 20260906034108 | 15 | 0.0 | 0.0 | 0.00 | 0.00 | 0.00 | 77 | 1022.2 | |
| 20260906033058 | 15 | 0.0 | 0.0 | 0.00 | 0.00 | 0.00 | 76 | 1022.1 | |
| 20260906032054 | 15 | 0.0 | 0.0 | 0.00 | 0.00 | 0.00 | 76 | 1022.1 | |
| 20260906031044 | 15 | 0 | 1.6 | 3.2 | 0.00 | 0.00 | 0.00 | 76 | 1021.9 |
| 20260906030055 | 15 | 0 | 1.6 | 3.2 | 0.00 | 0.00 | 0.00 | 75 | 1021.9 |
| 20260906025030 | 16 | 0.0 | 0.0 | 0.00 | 0.00 | 0.00 | 74 | 1022.0 | |
| 20260906024020 | 16 | 0.0 | 0.0 | 0.00 | 0.00 | 0.00 | 74 | 1022.0 | |
| 20260906023111 | 16 | 0.0 | 0.0 | 0.00 | 0.00 | 0.00 | 74 | 1022.0 | |
| 20260906022107 | 16 | 0.0 | 0.0 | 0.00 | 0.00 | 0.00 | 73 | 1022.0 | |
| 20260906021056 | 16 | 0 | 0.0 | 1.6 | 0.00 | 0.00 | 0.00 | 73 | 1022.0 |
| 20260906020047 | 16 | 0.0 | 0.0 | 0.00 | 0.00 | 0.00 | 73 | 1021.9 | |
| 20260906015042 | 16 | 0.0 | 0.0 | 0.00 | 0.00 | 0.00 | 73 | 1022.0 | |
| 20260906014113 | 16 | 0.0 | 0.0 | 0.00 | 0.00 | 0.00 | 73 | 1022.1 | |
| 20260906013023 | 16 | 0.0 | 1.6 | 0.00 | 0.00 | 0.00 | 74 | 1022.1 | |
| 20260906012038 | 16 | 0 | 0.0 | 3.2 | 0.00 | 0.00 | 0.00 | 74 | 1022.1 |
| 20260906011109 | 16 | 0.0 | 0.0 | 0.00 | 0.00 | 0.00 | 73 | 1022.1 | |
| 20260906010059 | 16 | 0 | 0.0 | 3.2 | 0.00 | 0.00 | 0.00 | 73 | 1022.0 |
| 20260906005055 | 17 | 0 | 1.6 | 3.2 | 0.00 | 0.00 | 0.00 | 72 | 1022.0 |
| 20260906004045 | 17 | 0.0 | 0.0 | 0.00 | 0.00 | 0.00 | 72 | 1021.8 | |
| 20260906003035 | 17 | 0.0 | 0.0 | 0.00 | 0.00 | 0.00 | 71 | 1021.9 | |
| 20260906002031 | 17 | 0 | 0.0 | 3.2 | 0.00 | 0.00 | 0.00 | 69 | 1022.0 |
| 20260906001042 | 17 | 0 | 0.0 | 3.2 | 0.00 | 0.00 | 0.00 | 69 | 1022.0 |
| 20260906000111 | 17 | 0 | 0.0 | 3.2 | 0.00 | 0.00 | 0.00 | 68 | 1022.1 |
| 20260905235108 | 17 | 0 | 1.6 | 3.2 | 0.00 | 0.00 | 0.00 | 67 | 1022.2 |
| 20260905234057 | 18 | 0.0 | 0.0 | 0.00 | 0.00 | 0.00 | 66 | 1022.2 | |
| 20260905233047 | 18 | 0 | 0.0 | 3.2 | 0.00 | 0.00 | 0.00 | 66 | 1022.1 |
| 20260905232043 | 18 | 0 | 1.6 | 3.2 | 0.00 | 0.00 | 0.00 | 66 | 1022.1 |
| 20260905231033 | 18 | 0 | 0.0 | 3.2 | 0.00 | 0.00 | 0.00 | 66 | 1022.1 |
| 20260905230024 | 18 | 0.0 | 0.0 | 0.00 | 0.00 | 0.00 | 65 | 1022.1 | |
| 20260905225020 | 18 | 0.0 | 0.0 | 0.00 | 0.00 | 0.00 | 65 | 1022.2 | |
| 20260905224110 | 18 | 0 | 1.6 | 3.2 | 0.00 | 0.00 | 0.00 | 64 | 1022.1 |
| 20260905223106 | 18 | 0 | 0.0 | 3.2 | 0.00 | 0.00 | 0.00 | 64 | 1022.2 |
| 20260905222056 | 18 | 0 | 1.6 | 3.2 | 0.00 | 0.00 | 0.00 | 63 | 1022.2 |
| 20260905221046 | 19 | 0.0 | 1.6 | 0.00 | 0.00 | 0.00 | 62 | 1022.1 | |
| 20260905220042 | 20 | 0.0 | 0.0 | 0.00 | 0.00 | 0.00 | 61 | 1022.0 | |
| 20260905215052 | 20 | 0.0 | 0.0 | 0.00 | 0.00 | 0.00 | 61 | 1022.0 | |
| 20260905214023 | 20 | 0.0 | 0.0 | 0.00 | 0.00 | 0.00 | 61 | 1022.1 | |
| 20260905213038 | 20 | 0 | 0.0 | 3.2 | 0.00 | 0.00 | 0.00 | 61 | 1022.0 |
| 20260905212108 | 20 | 0 | 0.0 | 1.6 | 0.00 | 0.00 | 0.00 | 61 | 1022.0 |
| 20260905211058 | 20 | 0 | 1.6 | 4.8 | 0.00 | 0.00 | 0.00 | 61 | 1022.0 |
| 20260905210114 | 20 | 0.0 | 0.0 | 0.00 | 0.00 | 0.00 | 60 | 1021.9 | |
| 20260905205044 | 21 | 0 | 1.6 | 3.2 | 0.00 | 0.00 | 0.00 | 59 | 1021.8 |
| 20260905204034 | 20 | 0 | 0.0 | 3.2 | 0.00 | 0.00 | 0.00 | 59 | 1021.7 |
| 20260905203030 | 21 | 0 | 1.6 | 4.8 | 0.00 | 0.00 | 0.00 | 57 | 1021.8 |
| 20260905202020 | 21 | 0 | 1.6 | 3.2 | 0.00 | 0.00 | 0.00 | 55 | 1021.7 |
| 20260905201131 | 22 | 0 | 1.6 | 4.8 | 0.00 | 0.00 | 0.00 | 54 | 1021.6 |
| 20260905200107 | 21 | 0.0 | 0.0 | 0.00 | 0.00 | 0.00 | 53 | 1021.6 | |
| 20260905195056 | 21 | 0 | 1.6 | 3.2 | 0.00 | 0.00 | 0.00 | 53 | 1021.7 |
| 20260905194047 | 22 | 0 | 3.2 | 4.8 | 0.00 | 0.00 | 0.00 | 47 | 1021.6 |
| 20260905193042 | 23 | 0 | 1.6 | 3.2 | 0.00 | 0.00 | 0.00 | 45 | 1021.5 |
| 20260905192033 | 23 | 0 | 1.6 | 3.2 | 0.00 | 0.00 | 0.00 | 45 | 1021.4 |
| 20260905191023 | 23 | 0 | 1.6 | 3.2 | 0.00 | 0.00 | 0.00 | 44 | 1021.2 |
| 20260905190019 | 23 | 0.0 | 0.0 | 0.00 | 0.00 | 0.00 | 43 | 1021.0 | |
| 20260905185109 | 24 | 0 | 1.6 | 3.2 | 0.00 | 0.00 | 0.00 | 43 | 1020.9 |
| 20260905184219 | 25 | 0 | 1.6 | 4.8 | 0.00 | 0.00 | 0.00 | 42 | 1020.8 |
| 20260905183115 | 25 | 0 | 0.0 | 3.2 | 0.00 | 0.00 | 0.00 | 41 | 1020.7 |
| 20260905182045 | 26 | 0 | 1.6 | 3.2 | 0.00 | 0.00 | 0.00 | 41 | 1020.7 |
| 20260905181035 | 27 | 0 | 1.6 | 3.2 | 0.00 | 0.00 | 0.00 | 40 | 1020.7 |
| 20260905180031 | 27 | 0 | 3.2 | 4.8 | 0.00 | 0.00 | 0.00 | 38 | 1020.6 |
| 20260905175041 | 27 | 0 | 3.2 | 9.7 | 0.00 | 0.00 | 0.00 | 34 | 1020.5 |
| 20260905174132 | 27 | 355 | 3.2 | 6.4 | 0.00 | 0.00 | 0.00 | 32 | 1020.4 |
| 20260905173107 | 28 | 0.0 | 1.6 | 0.00 | 0.00 | 0.00 | 31 | 1020.3 | |
| 20260905172117 | 28 | 351 | 1.6 | 6.4 | 0.00 | 0.00 | 0.00 | 30 | 1020.2 |
| 20260905171047 | 29 | 335 | 1.6 | 6.4 | 0.00 | 0.00 | 0.00 | 29 | 1020.1 |
| 20260905170043 | 29 | 315 | 1.6 | 6.4 | 0.00 | 0.00 | 0.00 | 28 | 1020.2 |
| 20260905165114 | 29 | 315 | 6.4 | 9.7 | 0.00 | 0.00 | 0.00 | 28 | 1020.1 |
| 20260905164044 | 30 | 331 | 8.0 | 12.9 | 0.00 | 0.00 | 0.00 | 26 | 1020.1 |
| 20260905163020 | 30 | 315 | 4.8 | 8.0 | 0.00 | 0.00 | 0.00 | 25 | 1020.2 |
| 20260905162110 | 31 | 322 | 3.2 | 6.4 | 0.00 | 0.00 | 0.00 | 25 | 1020.2 |
| 20260905161106 | 31 | 320 | 4.8 | 12.9 | 0.00 | 0.00 | 0.00 | 24 | 1020.2 |
| 20260905160055 | 31 | 320 | 6.4 | 16.1 | 0.00 | 0.00 | 0.00 | 23 | 1020.1 |
| 20260905155045 | 31 | 334 | 8.0 | 16.1 | 0.00 | 0.00 | 0.00 | 22 | 1020.1 |
| 20260905154035 | 31 | 341 | 8.0 | 12.9 | 0.00 | 0.00 | 0.00 | 21 | 1020.1 |
| 20260905153031 | 31 | 0 | 4.8 | 6.4 | 0.00 | 0.00 | 0.00 | 21 | 1019.8 |
| 20260905145652 | 31 | 355 | 12.9 | 20.9 | 0.00 | 0.00 | 0.00 | 20 | 1020.0 |
| 20260905144608 | 32 | 330 | 9.7 | 25.7 | 0.00 | 0.00 | 0.00 | 20 | 1020.0 |
| 20260905143624 | 31 | 315 | 8.0 | 17.7 | 0.00 | 0.00 | 0.00 | 20 | 1020.0 |
| 20260905142559 | 31 | 327 | 17.7 | 29.0 | 0.00 | 0.00 | 0.00 | 20 | 1020.1 |
| 20260905141555 | 32 | 332 | 14.5 | 24.1 | 0.00 | 0.00 | 0.00 | 20 | 1020.2 |
| 20260905140631 | 32 | 320 | 11.3 | 29.0 | 0.00 | 0.00 | 0.00 | 20 | 1020.1 |
| 20260905135546 | 32 | 325 | 9.7 | 19.3 | 0.00 | 0.00 | 0.00 | 12 | 1020.0 |
| 20260905134541 | 32 | 321 | 11.3 | 17.7 | 0.00 | 0.00 | 0.00 | 11 | 1020.2 |
| 20260905133537 | 32 | 344 | 12.9 | 20.9 | 0.00 | 0.00 | 0.00 | 12 | 1020.3 |
| 20260905132533 | 32 | 352 | 12.9 | 22.5 | 0.00 | 0.00 | 0.00 | 12 | 1020.3 |
| 20260905131529 | 32 | 322 | 9.7 | 24.1 | 0.00 | 0.00 | 0.00 | 11 | 1020.2 |
| 20260905130524 | 32 | 325 | 12.9 | 20.9 | 0.00 | 0.00 | 0.00 | 12 | 1020.2 |
| 20260905125520 | 32 | 318 | 14.5 | 22.5 | 0.00 | 0.00 | 0.00 | 12 | 1020.3 |
| 20260905124536 | 32 | 1 | 8.0 | 12.9 | 0.00 | 0.00 | 0.00 | 12 | 1020.5 |
| 20260905123611 | 32 | 331 | 9.7 | 17.7 | 0.00 | 0.00 | 0.00 | 13 | 1020.5 |
| 20260905122608 | 32 | 337 | 9.7 | 16.1 | 0.00 | 0.00 | 0.00 | 13 | 1020.5 |
| 20260905121603 | 32 | 336 | 9.7 | 14.5 | 0.00 | 0.00 | 0.00 | 13 | 1020.6 |
| 20260905120559 | 32 | 336 | 12.9 | 19.3 | 0.00 | 0.00 | 0.00 | 18 | 1020.6 |
| 20260905115555 | 32 | 321 | 12.9 | 22.5 | 0.00 | 0.00 | 0.00 | 16 | 1020.6 |
| 20260905114551 | 32 | 322 | 9.7 | 17.7 | 0.00 | 0.00 | 0.00 | 11 | 1020.7 |
| 20260905113546 | 32 | 349 | 11.3 | 22.5 | 0.00 | 0.00 | 0.00 | 19 | 1020.8 |
| 20260905112543 | 32 | 1 | 8.0 | 19.3 | 0.00 | 0.00 | 0.00 | 21 | 1020.8 |
| 20260905111538 | 32 | 330 | 8.0 | 22.5 | 0.00 | 0.00 | 0.00 | 20 | 1020.8 |
| 20260905110534 | 32 | 0 | 8.0 | 11.3 | 0.00 | 0.00 | 0.00 | 20 | 1020.7 |
| 20260905105529 | 31 | 341 | 8.0 | 16.1 | 0.00 | 0.00 | 0.00 | 20 | 1020.8 |
| 20260905104525 | 31 | 350 | 8.0 | 19.3 | 0.00 | 0.00 | 0.00 | 20 | 1020.7 |
| 20260905103521 | 31 | 302 | 6.4 | 11.3 | 0.00 | 0.00 | 0.00 | 25 | 1020.9 |
| 20260905102516 | 31 | 339 | 11.3 | 24.1 | 0.00 | 0.00 | 0.00 | 22 | 1020.6 |
| 20260905101612 | 30 | 0 | 3.2 | 6.4 | 0.00 | 0.00 | 0.00 | 25 | 1021.1 |
| 20260905100628 | 30 | 0 | 6.4 | 12.9 | 0.00 | 0.00 | 0.00 | 26 | 1021.1 |
| 20260905095603 | 30 | 90 | 3.2 | 4.8 | 0.00 | 0.00 | 0.00 | 28 | 1021.2 |
| 20260905094559 | 29 | 61 | 6.4 | 9.7 | 0.00 | 0.00 | 0.00 | 29 | 1021.2 |
| 20260905093635 | 29 | 90 | 4.8 | 8.0 | 0.00 | 0.00 | 0.00 | 31 | 1021.3 |
| 20260905092550 | 28 | 90 | 4.8 | 8.0 | 0.00 | 0.00 | 0.00 | 31 | 1021.3 |
| 20260905091546 | 28 | 52 | 3.2 | 6.4 | 0.00 | 0.00 | 0.00 | 35 | 1021.5 |
| 20260905090642 | 27 | 75 | 4.8 | 6.4 | 0.00 | 0.00 | 0.00 | 37 | 1021.5 |
| 20260905085538 | 27 | 45 | 4.8 | 6.4 | 0.00 | 0.00 | 0.00 | 42 | 1021.5 |
| 20260905084533 | 26 | 45 | 3.2 | 6.4 | 0.00 | 0.00 | 0.00 | 44 | 1021.5 |
| 20260905083529 | 26 | 45 | 3.2 | 6.4 | 0.00 | 0.00 | 0.00 | 45 | 1021.4 |
| 20260905082526 | 25 | 45 | 3.2 | 6.4 | 0.00 | 0.00 | 0.00 | 49 | 1021.5 |
| 20260905081521 | 25 | 45 | 1.6 | 3.2 | 0.00 | 0.00 | 0.00 | 50 | 1021.6 |
| 20260905080517 | 23 | 45 | 3.2 | 4.8 | 0.00 | 0.00 | 0.00 | 51 | 1021.6 |
| 20260905075612 | 23 | 45 | 3.2 | 6.4 | 0.00 | 0.00 | 0.00 | 53 | 1021.6 |
| 20260905074628 | 22 | 45 | 1.6 | 6.4 | 0.00 | 0.00 | 0.00 | 57 | 1021.5 |
| 20260905073624 | 22 | 45 | 3.2 | 4.8 | 0.00 | 0.00 | 0.00 | 61 | 1021.6 |
| 20260905072600 | 21 | 45 | 1.6 | 4.8 | 0.00 | 0.00 | 0.00 | 62 | 1021.7 |
| 20260905071556 | 21 | 45 | 1.6 | 3.2 | 0.00 | 0.00 | 0.00 | 63 | 1021.8 |
| 20260905070611 | 20 | 45 | 1.6 | 4.8 | 0.00 | 0.00 | 0.00 | 64 | 1021.8 |
| 20260905065547 | 19 | 45 | 1.6 | 3.2 | 0.00 | 0.00 | 0.00 | 67 | 1021.8 |